| time (UTC) | temp C | wind direction | speed KPH | gust KPH | rain 1hr cm | rain 24hr cm | rain mn cm | humidity % | barometer mb |
| 20260503200050 | 17 | 279 | 8.0 | 16.1 | 0.00 | 0.00 | 0.00 | 46 | 1013.9 |
| 20260503195551 | 17 | 292 | 8.0 | 16.1 | 0.00 | 0.00 | 0.00 | 47 | 1013.9 |
| 20260503195050 | 17 | 244 | 8.0 | 16.1 | 0.00 | 0.00 | 0.00 | 46 | 1014.0 |
| 20260503194551 | 17 | 0 | 6.4 | 16.1 | 0.00 | 0.00 | 0.00 | 48 | 1013.9 |
| 20260503194051 | 16 | 314 | 8.0 | 19.3 | 0.00 | 0.00 | 0.00 | 47 | 1014.0 |
| 20260503193550 | 16 | 271 | 8.0 | 19.3 | 0.00 | 0.00 | 0.00 | 47 | 1014.1 |
| 20260503193050 | 16 | 296 | 6.4 | 19.3 | 0.00 | 0.00 | 0.00 | 49 | 1014.1 |
| 20260503192549 | 16 | 351 | 6.4 | 14.5 | 0.00 | 0.00 | 0.00 | 49 | 1014.0 |
| 20260503192050 | 16 | 350 | 6.4 | 11.3 | 0.00 | 0.00 | 0.00 | 49 | 1014.1 |
| 20260503191550 | 16 | 357 | 6.4 | 11.3 | 0.00 | 0.00 | 0.00 | 48 | 1014.0 |
| 20260503190549 | 16 | 354 | 6.4 | 19.3 | 0.00 | 0.00 | 0.00 | 48 | 1014.0 |
| 20260503190049 | 16 | 292 | 8.0 | 19.3 | 0.00 | 0.00 | 0.00 | 50 | 1014.1 |
| 20260503185550 | 16 | 321 | 6.4 | 16.1 | 0.00 | 0.00 | 0.00 | 50 | 1014.1 |
| 20260503185049 | 16 | 337 | 8.0 | 11.3 | 0.00 | 0.00 | 0.00 | 51 | 1014.1 |
| 20260503184549 | 16 | 341 | 4.8 | 11.3 | 0.00 | 0.00 | 0.00 | 50 | 1014.0 |
| 20260503184048 | 16 | 281 | 6.4 | 11.3 | 0.00 | 0.00 | 0.00 | 49 | 1014.0 |
| 20260503183548 | 16 | 321 | 6.4 | 14.5 | 0.00 | 0.00 | 0.00 | 51 | 1014.2 |
| 20260503182548 | 16 | 331 | 6.4 | 11.3 | 0.00 | 0.00 | 0.00 | 51 | 1014.1 |
| 20260503182048 | 15 | 336 | 3.2 | 14.5 | 0.00 | 0.00 | 0.00 | 51 | 1013.9 |
| 20260503181548 | 15 | 283 | 6.4 | 14.5 | 0.00 | 0.00 | 0.00 | 51 | 1013.9 |
| 20260503181048 | 15 | 264 | 4.8 | 20.9 | 0.00 | 0.00 | 0.00 | 52 | 1014.0 |
| 20260503180548 | 15 | 338 | 8.0 | 20.9 | 0.00 | 0.00 | 0.00 | 52 | 1013.9 |
| 20260503180047 | 15 | 344 | 6.4 | 14.5 | 0.00 | 0.00 | 0.00 | 53 | 1013.9 |
| 20260503175047 | 15 | 275 | 3.2 | 16.1 | 0.00 | 0.00 | 0.00 | 53 | 1013.9 |
| 20260503174547 | 15 | 285 | 4.8 | 8.0 | 0.00 | 0.00 | 0.00 | 54 | 1014.0 |
| 20260503174048 | 14 | 338 | 3.2 | 16.1 | 0.00 | 0.00 | 0.00 | 54 | 1014.0 |
| 20260503173548 | 14 | 307 | 6.4 | 16.1 | 0.00 | 0.00 | 0.00 | 54 | 1014.1 |
| 20260503173047 | 14 | 300 | 6.4 | 14.5 | 0.00 | 0.00 | 0.00 | 54 | 1014.1 |
| 20260503172547 | 14 | 354 | 6.4 | 14.5 | 0.00 | 0.00 | 0.00 | 55 | 1014.1 |
| 20260503172048 | 14 | 357 | 4.8 | 9.7 | 0.00 | 0.00 | 0.00 | 56 | 1014.1 |
| 20260503171547 | 14 | 340 | 3.2 | 11.3 | 0.00 | 0.00 | 0.00 | 56 | 1014.0 |
| 20260503171046 | 14 | 307 | 6.4 | 11.3 | 0.00 | 0.00 | 0.00 | 56 | 1014.0 |
| 20260503150542 | 12 | 298 | 0.0 | 1.6 | 0.00 | 0.00 | 0.00 | 61 | 1013.4 |
| 20260503131039 | 12 | 306 | 0.0 | 4.8 | 0.00 | 0.00 | 0.00 | 61 | 1012.1 |
| 20260503130539 | 12 | 305 | 0.0 | 8.0 | 0.00 | 0.00 | 0.00 | 61 | 1011.9 |
| 20260503110538 | 12 | 310 | 1.6 | 8.0 | 0.00 | 0.00 | 0.00 | 59 | 1012.1 |
| 20260503081535 | 12 | 300 | 1.6 | 4.8 | 0.00 | 0.00 | 0.00 | 61 | 1012.9 |
| 20260503081035 | 12 | 302 | 1.6 | 4.8 | 0.00 | 0.00 | 0.00 | 62 | 1013.0 |
| 20260503080535 | 12 | 300 | 0.0 | 1.6 | 0.00 | 0.00 | 0.00 | 62 | 1012.9 |
| 20260503072531 | 12 | 330 | 0.0 | 4.8 | 0.00 | 0.00 | 0.00 | 62 | 1012.9 |
| 20260503072031 | 12 | 330 | 1.6 | 6.4 | 0.00 | 0.00 | 0.00 | 62 | 1012.9 |
| 20260503071531 | 12 | 324 | 0.0 | 8.0 | 0.00 | 0.00 | 0.00 | 62 | 1012.9 |
| 20260503071032 | 12 | 292 | 3.2 | 11.3 | 0.00 | 0.00 | 0.00 | 62 | 1012.9 |
| 20260503070532 | 12 | 341 | 3.2 | 11.3 | 0.00 | 0.00 | 0.00 | 62 | 1013.0 |
| 20260503055031 | 12 | 303 | 3.2 | 9.7 | 0.00 | 0.00 | 0.00 | 62 | 1013.3 |
| 20260503054531 | 12 | 347 | 4.8 | 9.7 | 0.00 | 0.00 | 0.00 | 62 | 1013.4 |
| 20260503054031 | 12 | 288 | 3.2 | 11.3 | 0.00 | 0.00 | 0.00 | 62 | 1013.4 |
| 20260503053533 | 12 | 299 | 3.2 | 11.3 | 0.00 | 0.00 | 0.00 | 62 | 1013.5 |
| 20260503053032 | 12 | 299 | 6.4 | 11.3 | 0.00 | 0.00 | 0.00 | 63 | 1013.5 |
| 20260503052531 | 12 | 340 | 3.2 | 8.0 | 0.00 | 0.00 | 0.00 | 63 | 1013.4 |
| 20260503052031 | 12 | 321 | 3.2 | 8.0 | 0.00 | 0.00 | 0.00 | 63 | 1013.4 |
| 20260503051532 | 12 | 275 | 3.2 | 8.0 | 0.00 | 0.00 | 0.00 | 63 | 1013.3 |
| 20260503051030 | 12 | 355 | 3.2 | 9.7 | 0.00 | 0.00 | 0.00 | 63 | 1013.4 |
| 20260503050531 | 12 | 338 | 3.2 | 9.7 | 0.00 | 0.00 | 0.00 | 62 | 1013.3 |
| 20260503045531 | 12 | 324 | 4.8 | 16.1 | 0.00 | 0.00 | 0.00 | 62 | 1013.4 |
| 20260503045032 | 12 | 283 | 4.8 | 16.1 | 0.00 | 0.00 | 0.00 | 62 | 1013.3 |
| 20260503044031 | 12 | 313 | 4.8 | 11.3 | 0.00 | 0.00 | 0.00 | 62 | 1013.3 |
| 20260503043532 | 12 | 298 | 3.2 | 11.3 | 0.00 | 0.00 | 0.00 | 62 | 1013.4 |
| 20260503043031 | 12 | 292 | 4.8 | 9.7 | 0.00 | 0.00 | 0.00 | 61 | 1013.4 |
| 20260503042531 | 12 | 306 | 4.8 | 8.0 | 0.00 | 0.00 | 0.00 | 61 | 1013.4 |
| 20260503042032 | 12 | 305 | 1.6 | 9.7 | 0.00 | 0.00 | 0.00 | 61 | 1013.4 |
| 20260503041531 | 12 | 317 | 3.2 | 11.3 | 0.00 | 0.00 | 0.00 | 61 | 1013.4 |
| 20260503041031 | 12 | 295 | 6.4 | 11.3 | 0.00 | 0.00 | 0.00 | 61 | 1013.3 |
| 20260503040532 | 12 | 243 | 1.6 | 9.7 | 0.00 | 0.00 | 0.00 | 61 | 1013.2 |
| 20260503040032 | 12 | 323 | 3.2 | 8.0 | 0.00 | 0.00 | 0.00 | 61 | 1013.2 |
| 20260503035531 | 12 | 343 | 4.8 | 8.0 | 0.00 | 0.00 | 0.00 | 61 | 1013.1 |
| 20260503034531 | 12 | 58 | 3.2 | 11.3 | 0.00 | 0.00 | 0.00 | 61 | 1012.9 |
| 20260503034030 | 12 | 289 | 3.2 | 9.7 | 0.00 | 0.00 | 0.00 | 61 | 1012.9 |
| 20260503033531 | 12 | 330 | 4.8 | 9.7 | 0.00 | 0.00 | 0.00 | 61 | 1012.9 |
| 20260503033031 | 12 | 272 | 4.8 | 9.7 | 0.00 | 0.00 | 0.00 | 61 | 1012.7 |
| 20260503032531 | 12 | 310 | 4.8 | 11.3 | 0.00 | 0.00 | 0.00 | 61 | 1012.7 |
| 20260503032031 | 12 | 323 | 4.8 | 14.5 | 0.00 | 0.00 | 0.00 | 61 | 1012.7 |
| 20260503031530 | 12 | 347 | 4.8 | 16.1 | 0.00 | 0.00 | 0.00 | 61 | 1012.6 |
| 20260503031031 | 12 | 314 | 6.4 | 16.1 | 0.00 | 0.00 | 0.00 | 61 | 1012.4 |
| 20260503030031 | 12 | 344 | 4.8 | 11.3 | 0.00 | 0.00 | 0.00 | 61 | 1012.4 |
| 20260503025031 | 12 | 338 | 3.2 | 8.0 | 0.00 | 0.00 | 0.00 | 61 | 1012.4 |
| 20260503024531 | 12 | 254 | 6.4 | 14.5 | 0.00 | 0.00 | 0.00 | 61 | 1012.5 |
| 20260503024031 | 12 | 337 | 3.2 | 14.5 | 0.00 | 0.00 | 0.00 | 61 | 1012.5 |
| 20260503023530 | 12 | 295 | 4.8 | 14.5 | 0.00 | 0.00 | 0.00 | 61 | 1012.5 |
| 20260503023032 | 12 | 296 | 6.4 | 14.5 | 0.00 | 0.00 | 0.00 | 61 | 1012.5 |
| 20260503022532 | 12 | 347 | 4.8 | 22.5 | 0.00 | 0.00 | 0.00 | 60 | 1012.4 |
| 20260503022031 | 12 | 282 | 6.4 | 22.5 | 0.00 | 0.00 | 0.00 | 60 | 1012.3 |
| 20260503021531 | 12 | 255 | 6.4 | 16.1 | 0.00 | 0.00 | 0.00 | 60 | 1012.4 |
| 20260503021033 | 13 | 283 | 9.7 | 17.7 | 0.00 | 0.00 | 0.00 | 60 | 1012.5 |
| 20260503020531 | 13 | 306 | 8.0 | 17.7 | 0.00 | 0.00 | 0.00 | 60 | 1012.5 |
| 20260503020031 | 13 | 250 | 9.7 | 17.7 | 0.00 | 0.00 | 0.00 | 60 | 1012.5 |
| 20260503015531 | 13 | 1 | 6.4 | 17.7 | 0.00 | 0.00 | 0.00 | 59 | 1012.4 |
| 20260503015032 | 13 | 327 | 8.0 | 16.1 | 0.00 | 0.00 | 0.00 | 59 | 1012.5 |
| 20260503014531 | 13 | 264 | 1.6 | 17.7 | 0.00 | 0.00 | 0.00 | 59 | 1012.6 |
| 20260503014031 | 13 | 250 | 6.4 | 17.7 | 0.00 | 0.00 | 0.00 | 59 | 1012.6 |
| 20260503013531 | 13 | 351 | 6.4 | 19.3 | 0.00 | 0.00 | 0.00 | 59 | 1012.6 |
| 20260503013031 | 13 | 344 | 4.8 | 19.3 | 0.00 | 0.00 | 0.00 | 58 | 1012.6 |
| 20260503012531 | 13 | 333 | 4.8 | 14.5 | 0.00 | 0.00 | 0.00 | 58 | 1012.7 |
| 20260503012032 | 13 | 306 | 6.4 | 16.1 | 0.00 | 0.00 | 0.00 | 58 | 1012.7 |
| 20260503011531 | 13 | 251 | 8.0 | 16.1 | 0.00 | 0.00 | 0.00 | 58 | 1012.8 |
| 20260503011031 | 13 | 345 | 4.8 | 17.7 | 0.00 | 0.00 | 0.00 | 58 | 1012.7 |
| 20260503010531 | 13 | 241 | 6.4 | 17.7 | 0.00 | 0.00 | 0.00 | 57 | 1012.7 |
| 20260503010031 | 13 | 290 | 3.2 | 14.5 | 0.00 | 0.00 | 0.00 | 57 | 1012.8 |
| 20260503005531 | 14 | 319 | 6.4 | 11.3 | 0.00 | 0.00 | 0.00 | 57 | 1012.8 |
| 20260503004532 | 14 | 302 | 6.4 | 17.7 | 0.00 | 0.00 | 0.00 | 56 | 1012.8 |
| 20260503004031 | 14 | 283 | 8.0 | 17.7 | 0.00 | 0.00 | 0.00 | 56 | 1012.9 |
| 20260503003531 | 14 | 278 | 6.4 | 17.7 | 0.00 | 0.00 | 0.00 | 56 | 1012.8 |
| 20260503001531 | 14 | 344 | 8.0 | 25.7 | 0.00 | 0.00 | 0.00 | 55 | 1012.8 |
| 20260503001031 | 14 | 333 | 6.4 | 25.7 | 0.00 | 0.00 | 0.00 | 55 | 1012.8 |
| 20260503000532 | 14 | 345 | 8.0 | 22.5 | 0.00 | 0.00 | 0.00 | 55 | 1012.9 |
| 20260503000031 | 14 | 0 | 11.3 | 22.5 | 0.00 | 0.00 | 0.00 | 55 | 1012.8 |
| 20260502235531 | 15 | 327 | 11.3 | 19.3 | 0.00 | 0.00 | 0.00 | 55 | 1012.8 |
| 20260502234532 | 15 | 313 | 8.0 | 17.7 | 0.00 | 0.00 | 0.00 | 54 | 1012.9 |
| 20260502233533 | 15 | 347 | 8.0 | 20.9 | 0.00 | 0.00 | 0.00 | 54 | 1012.9 |
| 20260502233031 | 15 | 293 | 8.0 | 19.3 | 0.00 | 0.00 | 0.00 | 54 | 1013.0 |
| 20260502232531 | 15 | 307 | 11.3 | 19.3 | 0.00 | 0.00 | 0.00 | 54 | 1013.1 |
| 20260502231531 | 15 | 334 | 12.9 | 27.4 | 0.00 | 0.00 | 0.00 | 54 | 1013.1 |
| 20260502231031 | 15 | 283 | 9.7 | 27.4 | 0.00 | 0.00 | 0.00 | 54 | 1013.1 |
| 20260502230530 | 15 | 235 | 12.9 | 22.5 | 0.00 | 0.00 | 0.00 | 52 | 1013.1 |
| 20260502230032 | 16 | 238 | 12.9 | 24.1 | 0.00 | 0.00 | 0.00 | 51 | 1013.3 |
| 20260502225532 | 16 | 306 | 12.9 | 24.1 | 0.00 | 0.00 | 0.00 | 51 | 1013.4 |
| 20260502225031 | 16 | 317 | 9.7 | 20.9 | 0.00 | 0.00 | 0.00 | 51 | 1013.4 |
| 20260502224532 | 16 | 286 | 9.7 | 17.7 | 0.00 | 0.00 | 0.00 | 51 | 1013.4 |
| 20260502223531 | 16 | 0 | 9.7 | 20.9 | 0.00 | 0.00 | 0.00 | 52 | 1013.5 |
| 20260502223032 | 16 | 296 | 9.7 | 22.5 | 0.00 | 0.00 | 0.00 | 52 | 1013.7 |
| 20260502222033 | 16 | 283 | 6.4 | 19.3 | 0.00 | 0.00 | 0.00 | 51 | 1013.7 |
| 20260502221532 | 16 | 288 | 8.0 | 19.3 | 0.00 | 0.00 | 0.00 | 51 | 1013.7 |
| 20260502221032 | 16 | 276 | 8.0 | 19.3 | 0.00 | 0.00 | 0.00 | 50 | 1013.8 |
| 20260502220533 | 16 | 261 | 6.4 | 22.5 | 0.00 | 0.00 | 0.00 | 51 | 1013.8 |
| 20260502220032 | 16 | 274 | 8.0 | 22.5 | 0.00 | 0.00 | 0.00 | 51 | 1013.7 |
| 20260502215533 | 16 | 261 | 11.3 | 22.5 | 0.00 | 0.00 | 0.00 | 51 | 1013.8 |
| 20260502215032 | 16 | 290 | 6.4 | 22.5 | 0.00 | 0.00 | 0.00 | 51 | 1013.9 |
| 20260502214532 | 16 | 334 | 9.7 | 17.7 | 0.00 | 0.00 | 0.00 | 51 | 1013.9 |
| 20260502214034 | 16 | 334 | 6.4 | 17.7 | 0.00 | 0.00 | 0.00 | 52 | 1013.8 |
| 20260502213531 | 16 | 321 | 8.0 | 22.5 | 0.00 | 0.00 | 0.00 | 53 | 1013.9 |
| 20260502213033 | 16 | 238 | 9.7 | 22.5 | 0.00 | 0.00 | 0.00 | 52 | 1013.9 |
| 20260502212533 | 17 | 288 | 9.7 | 22.5 | 0.00 | 0.00 | 0.00 | 51 | 1014.0 |
| 20260502212034 | 16 | 296 | 9.7 | 19.3 | 0.00 | 0.00 | 0.00 | 52 | 1013.9 |
| 20260502211532 | 16 | 321 | 8.0 | 19.3 | 0.00 | 0.00 | 0.00 | 54 | 1013.8 |
| 20260502211033 | 16 | 0 | 6.4 | 19.3 | 0.00 | 0.00 | 0.00 | 54 | 1013.9 |
| 20260502210031 | 16 | 321 | 8.0 | 16.1 | 0.00 | 0.00 | 0.00 | 55 | 1014.1 |
| 20260502205532 | 16 | 199 | 8.0 | 17.7 | 0.00 | 0.00 | 0.00 | 54 | 1014.2 |
| 20260502205031 | 16 | 313 | 9.7 | 17.7 | 0.00 | 0.00 | 0.00 | 54 | 1014.1 |
| 20260502204531 | 16 | 230 | 9.7 | 17.7 | 0.00 | 0.00 | 0.00 | 54 | 1014.2 |
| 20260502203031 | 16 | 283 | 6.4 | 17.7 | 0.00 | 0.00 | 0.00 | 53 | 1014.3 |
| 20260502202031 | 17 | 278 | 4.8 | 19.3 | 0.00 | 0.00 | 0.00 | 53 | 1014.4 |
| 20260502201030 | 17 | 347 | 6.4 | 17.7 | 0.00 | 0.00 | 0.00 | 53 | 1014.3 |
| 20260502200532 | 17 | 197 | 6.4 | 17.7 | 0.00 | 0.00 | 0.00 | 54 | 1014.4 |